Regional Weather Roundup
Issued by NWS Newport/Morehead, NC

Current Version | Previous Version | Graphics & Text | Print | Product List | Glossary On
Versions: 1 2 3 4 5 6 7 8 9 10 11 12 13 14 15 16 17 18 19 20 21 22 23 24 25 26 27 28 29 30 31 32 33 34 35 36 37 38 39 40 41 42 43 44 45 46 47 48 49 50
000 ASUS42 KMHX 231110 RWRMHX WEATHER ROUNDUP FOR EASTERN NORTH CAROLINA NATIONAL WEATHER SERVICE NEWPORT/MOREHEAD CITY NC 700 AM EDT TUE SEP 23 2014 NOTE: "FAIR" INDICATES FEW OR NO CLOUDS BELOW 12,000 FEET WITH NO SIGNIFICANT WEATHER AND/OR OBSTRUCTIONS TO VISIBILITY NCZ015>017-031-032-045>047-102-103-231200- NORTH COAST CITY SKY/WX TMP DP RH WIND PRES REMARKS EDENTON CLOUDY 61 52 72 NE8 30.23R ELIZABETH CITY CLOUDY 61 53 75 N12 30.22R KITTY HAWK CLOUDY 68 54 60 NE8G17 30.19R MANTEO CLOUDY 67 55 64 NE15 30.20R $$ NCZ045>047-081-094-103-104-231200- CENTRAL COAST CITY SKY/WX TMP DP RH WIND PRES REMARKS FRISCO CLOUDY 68 58 70 NE12G18 30.16S SWANQUARTER N/A 66 N/A N/A NE12 30.15R $$ NCZ095-097-098-100-101-231200- SOUTHERN COAST CITY SKY/WX TMP DP RH WIND PRES REMARKS BEAUFORT CLOUDY 70 60 70 NE9 30.16R CEDAR ISLAND N/A 72 N/A N/A NE22G28 30.21S JACKSONVILLE CLOUDY 67 60 78 NE9 30.16R NEWPORT NOT AVBL PINEY ISLAND CLOUDY 73 59 61 NE17G28 30.16R WILMINGTON CLOUDY 65 62 90 NE8 30.14R $$ NCZ011>013-027>030-043-044-078>080-089-090>093-098-231200- COASTAL PLAIN CITY SKY/WX TMP DP RH WIND PRES REMARKS AHOSKIE CLOUDY 56 47 71 N3 30.25R CLINTON CLOUDY 64 59 85 NE7 30.18R ELIZABETHTOWN CLOUDY 65 59 80 E5 30.15R GOLDSBORO CLOUDY 62 58 87 NE12 30.18S GREENVILLE CLOUDY 59 52 77 N8 30.23R HAVELOCK CLOUDY 69 58 67 NE15 30.18R KENANSVILLE CLOUDY 63 57 82 N5 30.18S KINSTON CLOUDY 63 55 77 NE8 30.21R NEW BERN CLOUDY 66 60 81 NE8 30.19R RICHLANDS CLOUDY 64 57 77 N8 30.18R ROANOKE RAPIDS NOT AVBL ROCKY MOUNT CLOUDY 59 47 64 NE14 30.23R WASHINGTON CLOUDY 60 56 88 N6 30.21S WHITEVILLE CLOUDY 65 60 83 NE7 30.13R $$ AMZ130-135-150-152-154-156-158-170-250-252-270-ANZ085-086-088-633-658-670-231200- MARINE OBSERVATIONS STATION/POSITION TIME TEMP WIND PRES WAVE SWELL AIR SEA DIR/SP/G HT/PER HT/PER (UTC) (F) (DEG/KT/KT) (MB) (FT/S) (FT/S) CHESAPEAKE LIGHT 1000 65 30/ 18/ 21 1023.5 BUOY 44014 1100 68 75 30/ 16/ 19 1022.0 4/ 6 2/ 8 DUCK 1100 69 74 40/ 18/ 22 1022.0 2E DUCK 1100 N/A 5/ 5 OREGON INLET 1100 69 74 30/ 14/ 20 1022.1 BUOY 44095 1100 74 N/A 5/ 6 20E OREGON INLET NOT AVBL HATTERAS CG NOT AVBL DIAMOND BUOY 1100 73 20/ 21/ 27 1020.1 5/ 7 CAPE LOOKOUT 1000 73 40/ 22/ 28 1020.0 BEAUFORT LAB 1100 69 76 40/ 9/ 14 1020.5 30 SE NEW RIVER 1100 75 82 50/ 25/ 31 1018.6 5/ 5 5 SE WRIGHTSVILL 1000 71 79 60/ 19/ 23 N/A BUOY 41002 1020 79 81 70/ 6/ 8 1018.4 3/ 7 3/ 7 BUOY 41004 1100 74 81 50/ 12/ 14 1017.8 4/ 5 2/ 7 $$

USA.gov is the U.S. government's official web portal to all federal, state and local government web resources and services.